TIMESTAMP,CO2_1_1_1,H2O_1_1_1,TAU_1_1_1,TAU_SSITC_TEST_1_1_1,H_1_1_1,H_SSITC_TEST_1_1_1,LE_1_1_1,LE_SSITC_TEST_1_1_1,FC_1_1_1,FC_SSITC_TEST_1_1_1,WD_0_0_1,WS_0_0_1,WS_MAX_0_0_1,U_SIGMA_0_0_1,V_SIGMA_0_0_1,W_SIGMA_0_0_1,USTAR_0_0_1,MO_LENGTH_0_0_1,ZL_0_0_1,FETCH_MAX_0_0_1,FETCH_70_0_0_1,FETCH_80_0_0_1,FETCH_90_0_0_1,PA_0_0_1,RH_0_0_1,TA_0_0_1,VPD_0_0_1,T_SONIC_0_0_1,T_SONIC_SIGMA_0_0_1
[yyyymmddHHMMSS],[mmolCO2 mol-1],[mmolH2O mol-1],[kg m-1 s-2],[#],[W m-2],[#],[W m-2],[#],[umolCO2 m-2 s-1],[#],[Decimal degrees],[m s-1],[m s-1],[m s-1],[m s-1],[m s-1],[m s-1],[m],[#],[m],[m],[m],[m],[kPa],[%],[deg C],[hPa],[deg C],[deg C]
20220124003000,421.52077535835758,1.0375514877386844,0.12510035641478448,0,-34.161090421888503,0,0.31868466149616786,0,0.31991332411158852,0,185.33941845685754,2.1756339473696231,4.3162951383419017,0.67572298094018868,0.60890263593150207,0.43387364166504017,0.31466785905239381,75.442795429674504,0.25184644725567235,96.838085411348700,177.05090505520755,211.88471391896985,265.25451867173132,93.075447749673543,57.843103448275862,-16.602068965517219,0.70400917138731223,-17.196055716815408,0.22422154968020910
20220124010000,421.66596851189638,1.0539050279613240,0.19935075026061530,0,-40.309584099181748,0,0.87547872702119656,0,0.54097279875881399,0,186.92021622307817,2.8192537136370253,6.0598924966822905,0.89777891233244633,0.73175182490571611,0.57056927624645271,0.39712707909146278,128.50124507281379,0.14785848953629877,93.702633147646765,171.31829831595073,205.02424778027012,256.66602915860659,93.055646750399404,59.620666666666665,-16.779333333333341,0.66438987304956743,-17.352116318575725,0.17091482049750620
20220124013000,421.72692741020131,1.0694672498107578,0.29213462859490291,0,-24.039585578300368,0,3.0577157117981137,0,0.96768653780915437,0,197.12204233051855,2.7250530390126730,7.5566708767633406,1.1589156389798940,0.90604924005894660,0.70634235975295678,0.48110590927676572,383.01499782592367,4.9606412563080106E-002,92.094830152201055,168.37872165781107,201.50632529883131,252.26200766371301,93.023241331380206,58.993666666666670,-16.481999999999971,0.69170511131509149,-17.095831548055003,0.10886140225783482
20220124020000,421.64359686472159,1.0615133628468563,0.18589137918670934,0,-10.058471071430326,0,3.3458698362434576,0,0.63389132321968045,0,196.87795837553367,2.2679570735488785,5.7316049855776985,0.87335816918069720,0.83511456062420342,0.61008595989471315,0.38394368877694418,465.10669044123250,4.0850842162634300E-002,86.448229241869072,158.05493430273108,189.15138856688230,236.79509296543935,92.981734937065980,57.996666666666670,-16.372666666666646,0.71502349699698231,-17.011177280849836,4.1075520159363062E-002
20220124023000,421.66752894637824,1.0694827317017557,0.29078856611049986,0,-8.3098028656557013,0,3.7067102405034804,0,0.60474545661572998,0,195.71260698840683,2.1709732901410161,5.7111579706759619,0.94066880748335768,0.76716523601666331,0.57812856375019561,0.48028591160159551,1101.7155074811399,1.7245831497316250E-002,107.95312931328263,197.37275026937516,236.20477236863908,295.70034592759657,92.945213961273467,58.482333333333337,-16.387666666666689,0.70587131479612786,-17.027473178579044,3.8027925424516079E-002
20220124030000,421.76799835899408,1.0800497595515333,0.29217541661967494,0,-3.6035919785468304,0,3.1539259225833707,0,0.42780660389533132,0,195.54114275165244,2.2142548524851540,5.7960686664035990,0.97809298811592116,0.73882899060407170,0.58463097742612546,0.48146058238458711,2558.7964169113261,7.4253660331971760E-003,107.20080106132096,195.99725428199986,234.55865497832792,293.63960229032250,92.923588390413101,59.184666666666665,-16.415666666666652,0.69230960654420404,-17.060522651757140,3.4120954069876690E-002
20220124033000,422.00379564617879,1.0845152708276418,0.37014584183553045,0,-2.5112715575164954,1,3.7247365734801670,0,0.49698342578763777,0,195.39660971157249,1.9332781464508084,5.0723261008711642,0.99376751203005398,0.76020809000354905,0.62238009678107420,0.54185822532830841,5233.5188637406764,3.6304445430850483E-003,112.07761467717152,204.91362495170245,245.22927339711731,306.99795032900226,92.905968956597221,59.896666666666668,-16.511666666666656,0.67479768828497799,-17.153768294864221,3.9191571129603038E-002
20220124040000,422.06956726287240,1.0791744829080407,0.29253181804855316,0,-4.6740405933522924,0,3.4549431802286619,0,0.66783597413317586,0,199.87177459012173,1.8307650624997134,7.1217694836075944,1.0364251531086588,0.72168011784390107,0.62993086600975068,0.48163298149129063,1974.5934791821894,9.6222337409263420E-003,101.01679002538013,184.69090981913831,221.02784833695131,276.70063799924492,92.903442287109371,60.043666666666667,-16.600333333333310,0.66735723835876570,-17.239857671101902,3.1105388188470133E-002
20220124043000,421.86055640135271,1.0565090586927068,0.25577062487186802,0,-4.6300116725269191,1,4.1993202578253719,0,0.66087361453345916,0,195.82986466884097,1.7458399845457135,5.6618033659672600,0.90979221025678869,0.71886138769490171,0.57103603725992524,0.45038341253382064,1629.5552034351956,1.1659623411313045E-002,103.55951221068139,189.33981693351609,226.59140280541703,283.66554799837400,92.868720284458689,59.063000000000002,-16.661666666666690,0.68023609982016331,-17.307174642092093,3.1385076670138928E-002
20220124050000,421.70717925983774,1.0987743203542824,0.24892446088336928,0,5.2152279207138612,1,-2.7739458406383872,2,0.92268159465608601,0,197.84799171832930,2.0092540577649243,5.5085131165148864,0.92840304461190681,0.76511555873137682,0.59605137430457689,0.44429515970066075,-1388.3993672148840,-1.3684823292676819E-002,98.984047976766206,180.97440904444730,216.58014611718863,271.13264260364735,92.828712378004312,62.109666666666669,-16.798999999999978,0.62240996042681107,-17.451356129435652,7.1351558760613124E-002
20220124053000,421.62557824476818,1.2061647204814852,0.22333971868055244,0,4.1610585080938574,0,-0.78137091635798672,1,0.59528528412004922,0,196.86659510775360,1.9472570304480685,4.9471631954155617,0.89507074842632783,0.65422632606409048,0.52786332074620868,0.42079613333510391,-1477.9221153571809,-1.2855887196334513E-002,104.44679157484907,190.96204659445368,228.53279738632273,286.09594363940636,92.786923154079858,69.207333333333338,-16.982666666666660,0.49808683111628071,-17.626327892303408,6.2326609978482279E-002
20220124060000,421.83310752012136,1.2684074469905677,0.26945772151987513,0,3.6881461484510054,0,1.5409625941425580,1,0.42910023668411995,0,183.00736641347251,1.7255918122502594,5.2726316778318365,0.85240891055188883,0.70855210632398336,0.53185879234394939,0.46217769460319313,-2208.4562383002349,-8.6032947678526695E-003,111.90899894266036,204.60534161178572,244.86033697590065,306.53608570922739,92.734865248697915,73.841999999999999,-17.162000000000006,0.41679201699876689,-17.795063493940518,3.6015371611242901E-002
20220124063000,422.01419215770943,1.2444762271985530,9.8841274748288480E-002,0,0.65283472015268795,1,0.62838848075123022,1,0.31673861949598819,0,184.12104343198763,1.5295249334635739,4.2696577114398631,0.75655979960514441,0.62080469567270558,0.43914873981266656,0.27996998088218450,-2772.4351782036551,-6.8531809686207621E-003,87.348361189094078,159.70066258461858,191.12090499543351,239.26069382266402,92.693570482855904,72.532333333333327,-17.181000000000012,0.43696113906854267,-17.804872231801340,2.0117564825069677E-002
20220124070000,422.13302297567503,1.2358325461291326,8.9941405630633867E-002,0,1.4828851274133292,0,1.1689555755956442,0,0.50767498406071399,0,171.03369259821699,1.4930559564336170,3.9045663416372216,0.61021498899111282,0.56599149402710291,0.38503936723975701,0.26716340343885991,-1060.1164779660103,-1.7922558883769358E-002,93.470026482994285,170.89301914687528,204.51529723270218,256.02888346732055,92.633952369357630,71.869333333333330,-17.162333333333351,0.44821120578509510,-17.789735978444384,2.3193346061896991E-002
20220124073000,422.07152483977052,1.2366488532173068,7.0768132476000972E-002,0,1.0425573157102739,0,0.79130393658543341,1,0.28451204368067889,0,166.79023767357936,1.1710616903906894,3.3123026209201356,0.47695218643058396,0.53686708023208107,0.39215820198762885,0.23703110479556075,-1052.8236557989346,-1.8046706963078123E-002,83.700900471348660,153.03194109464928,183.14014858717434,229.26973383053033,92.606848478732644,71.712666666666664,-17.132000000000005,0.45185814925175566,-17.757130036248071,1.8280087438911154E-002
20220124080000,421.86031605157638,1.2489711409376776,0.11431020378579526,0,0.57200825341214478,0,1.3289922084479897,0,0.60943156653963837,0,168.87936555305211,1.0498010881924924,3.3810198799398381,0.67704996214664070,0.56378600378454968,0.39850467132030876,0.30127564187116890,-3939.9841098098077,-4.8223544741446116E-003,100.11044291976066,183.03381824548265,219.04473295037880,274.21801286028864,92.596192273871537,72.353999999999999,-17.121333333333325,0.44200966834723332,-17.747422515445294,1.9043628238230869E-002
20220124083000,422.07182693113265,1.2850959186409117,4.0929443643058533E-002,0,-1.2007697846542620,1,2.7624793973304071,1,0.45976617967748523,0,158.27621200259114,0.72141809746180574,2.6693855112883051,0.49577352240762879,0.39265880973316220,0.25092883250896858,0.18027748811560906,402.07554196755507,4.7254801689810763E-002,31.879635458798923,207.00000000000000,344.00000000000000,781.00000000000000,92.577050812934033,74.769999999999996,-17.175333333333327,0.40155518219933084,-17.800125894334599,3.2412653381817529E-002
20220124090000,421.85497840344681,1.3379192671522773,4.8705791844788210E-002,0,0.23316275119319649,2,1.0087717195240433,1,0.83702611005761940,0,168.28839199258439,1.1105523146793868,2.7133548952052888,0.51188256745793093,0.37105754872213942,0.29968172012110345,0.19666303786437181,-2687.6968738883097,-7.0692495811525684E-003,64.902332666683805,347.00000000000000,547.00000000000000,1133.0000000000000,92.554628947699655,78.196333333333328,-17.231999999999999,0.34537243776884069,-17.853005867428237,2.2537542525527358E-002
20220124093000,421.62376903757098,1.3617571897076883,2.3587560148616564E-002,0,-0.15557112796632011,2,0.75276831883595474,0,0.51449292137645797,0,192.24031172033159,0.57596954946128687,2.2083421586502836,0.38910760168383113,0.26833549637147580,0.18838389866058677,0.13686205810789923,1357.5242781669383,1.3996066446528422E-002,37.451688837772728,222.00000000000000,360.00000000000000,781.00000000000000,92.541090049479166,79.772333333333336,-17.260999999999996,0.31962758977239009,-17.876905668894437,1.7227472569963157E-002
20220124100000,421.74689489668623,1.3789831573086635,8.2394360740931469E-002,1,0.72962185460710105,1,1.5939398385336376,1,0.51637962742367605,1,224.10628466286812,0.84031944432175443,2.3647669280369317,0.47842863583211431,0.42310616052897077,0.23274934759218976,0.25580121133128791,-1889.7447737878467,-1.0054267784488154E-002,135.04117227204526,246.89833208618805,295.47424479327208,369.89869223178437,92.530546445746523,80.883333333333340,-17.277333333333331,0.30165719931392687,-17.894657397800017,1.8064826669373778E-002
20220124103000,421.74467459245352,1.3828777223325270,6.9305396816661577E-002,1,-8.7183140932413930E-002,2,0.54886261605242681,0,0.30081371664076895,0,252.35484984009423,0.98860063883215499,2.4309317948752680,0.38738470135149061,0.32514662434429864,0.24940637356523937,0.23460985604031975,12201.311078924440,1.5572097028834111E-003,119.23557876790522,218.00066622512023,260.89111932441841,326.60472292773636,92.532567016927089,81.006666666666661,-17.261666666666656,0.30010642850157498,-17.877857399834511,1.8457316332490804E-002
20220124110000,421.82057043849460,1.3781706866297041,6.1670193951110931E-002,1,-0.35737930852932642,1,0.99690584196456922,0,0.21130035199722866,1,240.50563568938111,1.2318640454371579,2.4043894041043967,0.41853004272214211,0.38066666831395279,0.25456902042973856,0.22129734821789673,2498.1154360278492,7.6057333964562983E-003,111.94157847736567,204.66490739193665,244.93162200142879,306.62532610219978,92.536555520616332,80.849999999999994,-17.278666666666680,0.30214928538613650,-17.895648992326471,1.6740846995097234E-002
20220124113000,422.05407438790104,1.3814141901631947,5.7155217178620432E-002,1,-0.78222231773979423,1,0.38469381172267436,0,0.34807921359635441,0,257.40275045497526,1.1163354362639961,2.4089619267744129,0.42294974154453735,0.30547277152999397,0.26000901682395389,0.21303329181549771,1018.1922750263792,1.8660522639997196E-002,106.76334079530982,195.19743739493563,233.60147844059537,292.44133084778127,92.537779697048606,81.173333333333332,-17.298000000000002,0.29656474390794529,-17.910580654568150,2.0262212388969452E-002
20220124120000,421.78623496667689,1.3764458453313071,4.6173031476171300E-002,0,-3.0990137109404725,0,0.35255204694993036,1,0.39171110862564607,0,269.72011424725963,1.6502407921380271,3.5602229977223043,0.49773618251146295,0.37613252650907730,0.27658674860322269,0.19144894240820234,186.53274988559295,0.10185878893466892,107.05584217313218,822.00000000000000,1432.0000000000000,3525.0000000000000,92.538539758897571,81.353333333333339,-17.367000000000019,0.29202773885291267,-17.974059925503184,3.6157189349226029E-002
20220124123000,421.65570897566238,1.3731883914087666,0.13383716667249371,0,-6.6087780197558468,0,-8.1446247344396303E-002,1,0.35540452194855537,0,263.74475276251366,2.0266159983745680,4.1314505237538954,0.63295006047174551,0.50478712303897721,0.36797738986787870,0.32583857438097857,431.31101905263318,4.4051737981870148E-002,113.60566539501292,207.70738901069706,248.57269543843699,311.18351797984218,92.563885806502881,81.870000000000005,-17.466999999999985,0.28155367101229972,-18.064161854705105,5.2361939309280063E-002
20220124130000,421.69734404905586,1.3595831639501375,0.13827307571030836,0,-19.982789188849864,0,-0.90313313813881924,0,0.28622875153885163,0,268.17207461853195,2.4486315785337616,4.8496400300179525,0.64857675975521079,0.52710378274781333,0.38826920948613131,0.33102375383964444,149.57171743815735,0.12702936307364279,110.21377198531113,201.50592606884385,241.15112817277438,301.89259643844179,92.571391680989592,82.733333333333334,-17.708333333333343,0.26274050639339308,-18.301521659003299,0.11620550668715825
20220124133000,421.73239080938913,1.3496802552103409,9.6940785604923543E-002,0,-10.739940467012936,0,-0.50172896747073326,0,0.19030224233139595,0,253.18041777555277,2.2723786444591840,4.7507069693407615,0.56494924064926699,0.51393585260211727,0.33592864988033055,0.27703991847949777,163.15187164904250,0.11645591195466684,107.32258998133625,196.21992327037162,234.82513288695580,293.97320101050565,92.583250118923601,83.563333333333333,-17.911333333333346,0.24585428869676462,-18.518654794904876,8.4294158305942071E-002
20220124140000,421.90768483071167,1.3534363300233365,8.9262706572427325E-002,1,-9.5179664589885125,0,9.2626061223902087E-002,2,0.38508381348847126,1,249.17939949114060,2.2921810267886107,4.1769710770524160,0.51623022457456225,0.47926708652713285,0.33106495277008802,0.26580798302618902,162.60980841191395,0.11684412020134897,105.04581369782585,192.05725008356254,229.84347624391188,287.73675803829678,92.589157628689236,84.156666666666666,-17.961333333333329,0.23597852186104562,-18.566827309078633,8.5616709356718029E-002
20220124143000,421.99397799823197,1.3946354784691586,0.21741960094380547,0,-8.7539698681579459E-002,2,0.21393656200486763,2,0.63410141628567795,0,269.40091478905265,2.4692670789849891,6.3411015987842427,0.84080478058951180,0.72480307411084177,0.49151580077553553,0.41501146101417924,67302.179364626296,2.8230883723783705E-004,109.36364719730437,199.95162682297271,239.29102894903315,299.56397293772136,92.608253713954326,84.866666666666674,-17.703666666666663,0.23036915900868934,-18.315137793596762,7.6539087333305222E-002
20220124150000,421.86904094643262,1.4567094625369552,0.26817265334537693,0,6.9941824425972561,0,-0.89446344906415010,1,7.8016650338125229E-002,2,275.65395310475674,2.6812214345949852,5.4234442341711322,0.92221699407477031,0.72709301980725694,0.56174257830178898,0.46126401565274422,-1156.8232975173919,-1.6424288861380188E-002,106.95095961733327,195.54046443954871,234.01199420266758,292.95524786832323,92.637082271156984,85.269999999999996,-17.239666666666665,0.23317434870878573,-17.842631946663744,0.30420121736541927
20220124153000,421.84185706949557,1.5478320716132474,0.26866086678991852,0,25.636121607654253,0,1.4183266224208679,0,0.34275469325500363,1,281.53391933509465,3.2218760710759136,7.4468986196793763,1.1546891954961909,0.89068429979004504,0.61677976067355067,0.46250279898487373,-318.23882954149764,-5.9703588111401230E-002,99.458590629422034,181.84202436111863,217.61846005920040,272.43248844823148,92.666779060980900,83.473333333333329,-16.257333333333349,0.28405464769953342,-16.889724076165066,0.15439091129931168
20220124160000,421.66646264039616,1.6058487494294509,0.29230765748751264,0,54.637223438369716,0,4.7881253811857771,1,2.3333182434334812E-002,2,286.55548909480581,2.7009084616641044,6.5303825467036249,1.0513330992890964,0.76750106456218703,0.60206142605945168,0.48287666061113094,-169.98737269436253,-0.11177300818786122,104.95695661820066,191.89479100249568,229.64905421650312,287.49336473093808,92.705416098741324,82.556666666666672,-15.677333333333308,0.31463248126328469,-16.353498450385132,0.27091684877282984
20220124163000,421.69744428049563,1.7125996358370392,0.13461811246444561,0,44.782570788968336,0,1.7763955393260558,2,0.28192168407302765,0,296.59514418263194,2.2362289124383521,5.7733104502577035,0.85192098701016961,0.77987690885483563,0.57517044961635966,0.32828918689631625,-65.190108640121039,-0.29145525903152908,79.950817759012097,146.17559386896087,174.93485209354097,218.99767629640397,92.739818628472221,80.943333333333328,-14.654999999999973,0.37402826368601583,-15.384440934075144,0.31422536520823091
20220124170000,421.40562406266542,1.8214038512247999,0.49868123130577913,0,113.67967798066455,0,12.435764189894179,0,0.30874022815394753,1,297.74571806759104,2.6520890556926044,6.1997172438784593,1.2185689940952014,0.88132202949196337,0.67032380272920988,0.63280720400596824,-183.98099738399463,-0.10327153494197167,119.57608179067705,218.62321434861627,261.63615042723387,327.53741345985446,92.773092836002178,80.234666666666669,-13.791666666666686,0.41637711836371749,-14.500676677992260,0.25832901276626069
20220124173000,421.08387717735241,1.8599069515516049,0.47560716820790933,0,88.245055176990846,0,16.035985536649317,1,0.77424651811968115,1,323.80245009900131,3.1198996641027210,8.8084661430993396,1.4486910531897832,1.0256518306458908,0.72767614927063562,0.61865276738725350,-221.48884530924099,-8.5783101056273736E-002,109.96689318289306,201.05455288006803,240.61094974813074,301.21635715069164,92.789760080295139,78.061333333333337,-13.195333333333338,0.48515667757719683,-14.035921151055220,0.22317906567531767
20220124180000,420.77395107544777,1.8032892788340067,0.49874273166821315,0,77.835234207134022,0,11.757223969069303,0,0.14642697692942633,1,319.43848356266392,3.2152868165980841,8.1266171771434887,1.4865877325498413,1.2144099112342990,0.75084469818536492,0.63358296281849547,-269.73880234560505,-7.0438512497197542E-002,109.30942187686014,199.85248564292172,239.17238227752284,299.41544138411666,92.793194056857644,75.283333333333331,-13.129333333333363,0.54952703644204548,-13.924471412658704,0.21293188976903363
20220124183000,420.59560928567180,1.7863977413772421,0.57998582598373549,0,78.544519792211801,0,13.864405070271895,0,8.4538269400801058E-002,2,324.70908216882924,3.6333386055337056,8.5832533514864746,1.4873452400322080,1.2325203454599585,0.78417913239522208,0.68338190616813221,-335.45378963798106,-5.6639694011221757E-002,112.16399142030826,205.07154918660567,245.41826837188407,307.23454961045070,92.808072512152776,73.683999999999997,-12.978666666666641,0.59228001292228016,-13.778364857991505,0.20288388500772406
20220124190000,420.26659752192700,1.7907433509790216,0.93602897935806939,0,105.06896003385671,0,-0.84627701931446153,2,-0.93860156644668025,2,323.91651762156442,3.6048300502306065,9.9788108523537709,1.6307754718780763,1.0667973984330836,0.85870791054966078,0.86813664592807038,-514.15547224063062,-3.6953802936687957E-002,126.31327635023833,230.94095472149186,276.37733965877754,345.99163312459808,92.821873176866319,73.726666666666659,-12.954000000000008,0.59250324301544399,-13.742827886793350,0.19275792438331907
20220124193000,420.48749529621409,1.6948157041583969,0.75293638810603891,0,77.277768853198054,0,9.6356084713766794,0,0.50558394087686920,1,319.92327285588738,3.7214205248069505,9.9328145862946311,1.6636983061262876,1.3383748149146084,0.86125311931367798,0.77839102724213360,-503.98356390257453,-3.7699642132918654E-002,115.48046138039177,211.13511400748118,252.67480680640790,316.31887463829878,92.845674229383690,70.211333333333329,-13.027333333333331,0.66779702103518612,-13.933979664272726,0.31078848071312298
20220124200000,420.45354985108929,1.7433225055488304,0.82241521629653080,0,92.573789271009773,0,-3.0206904158344674,2,0.10254509109388799,1,314.79856804428266,3.3114719430342556,8.8011048913743384,1.5198286943439221,1.4958289153133104,0.90708398304370141,0.81293712485240188,-479.39480199296810,-3.9633304159769962E-002,114.70503105639325,209.71738006439455,250.97814137083469,314.19485084660590,92.884734933159720,73.812666666666672,-13.290666666666652,0.57464408777278297,-14.086704128689234,0.22197362526426814
20220124203000,420.35486544566419,1.6401004217001847,0.83139905280235205,0,90.167641784536599,0,7.7176716502736094,0,-0.37873894061410640,2,297.84936802812263,3.4316984729623909,9.7173348025142108,1.5759083979507162,1.3295564209544390,0.92404276703678201,0.81713245457784467,-499.97799929577934,-3.8001672127096715E-002,113.48415029748639,207.48522065716597,248.30681666184950,310.85066930187799,92.920916078559017,69.676666666666662,-13.327333333333343,0.66342216374996754,-14.098323262532517,0.19775522128410933
20220124210000,420.37479008420030,1.7773265691076048,0.85456626964122828,0,74.457115981596871,0,10.434505869981836,1,-0.16457501316115056,2,303.24601953469318,3.9518590947183738,11.941926781051015,1.9177809193231763,1.4163403269832036,0.92577740352106086,0.82775975628085363,-629.58926548179352,-3.0178405258323836E-002,114.49145784219264,209.32690011315282,250.51083659916944,313.60984072488247,92.956284927517373,77.659999999999997,-13.668000000000006,0.47538804230137571,-14.378499865214053,0.26672146054442153
20220124213000,420.51257903099298,1.5665749043147519,0.76707030714254631,0,50.845336907017902,0,3.5675137595743602,2,5.7974999149532427E-002,0,295.00083663888518,4.0705423419252256,12.176052891629332,1.9257708057183953,1.5649787703217837,0.99891762755291191,0.78358888575522767,-782.34496148191533,-2.4285961993044936E-002,103.11023392185490,188.51839293158037,225.60836806971739,282.43490516042334,93.000921197445010,70.100333333333339,-13.953666666666663,0.62158590561480054,-14.649251419865038,0.18765808291320746
20220124220000,421.11611631354663,1.3825237018799348,0.74328202791685183,0,18.038288826376000,0,-7.9666347212734490,1,0.22706768286487036,1,283.98353827128716,4.5032269926117507,11.346919082413143,1.7888736453556182,1.2842836708543068,0.99367415579692198,0.77008380534813237,-2093.9619527804048,-9.0737083234828687E-003,102.11513045545745,186.69902642303313,223.43105103167639,279.70916259863480,93.054743584201390,65.438999999999993,-14.631666666666661,0.67963733382243963,-15.350462698194633,0.15887161294185137
20220124223000,420.94728340576910,1.5354575976629121,1.1115718037403028,0,22.386373867882543,1,36.792267313830202,1,1.5605849027542094,1,283.25706249507073,3.9347194176976403,10.906587427568912,1.9077796672385530,1.3342051589460313,0.98086244984362136,0.94090574371778846,-3078.7710408124181,-6.1712935934938283E-003,121.11705672796055,221.44060800271944,265.00785105881567,331.75838255004294,93.103715225911458,74.754333333333335,-14.967333333333329,0.48291621647383409,-15.627210720909943,0.11765492534196871